Location: Strawberry
(45.6646°N, 111.9596°W)
Time: 13:05:32
(UTC+00:00)

Vanguard 2 Rocket - Visible Passes

Search period start: 05 October 2022 00:00
Search period end: 15 October 2022 00:00
Orbit: 553 x 3323 km, 32.9° (Epoch: 04 October)

Date Brightness Start Highest point End Pass type
(mag) Time Alt. Az. Time Alt. Az. Time Alt. Az.
05 Oct 9.9 03:55:16 10° SSW 04:06:01 26° S 04:06:01 26° S visible
05 Oct 10.5 06:09:49 10° SW 06:11:49 14° SW 06:11:49 14° SW visible
06 Oct 9.9 02:54:48 10° S 03:07:28 22° SSE 03:09:42 22° SE visible
06 Oct 10.0 05:07:38 10° SW 05:15:29 26° SSW 05:15:29 26° SSW visible
07 Oct 10.2 01:55:35 10° S 02:06:09 17° SE 02:13:19 13° ESE visible
07 Oct 9.7 04:05:49 10° SW 04:19:06 33° S 04:19:06 33° S visible
07 Oct 10.4 06:21:46 10° WSW 06:24:54 17° WSW 06:24:54 17° WSW visible
08 Oct 9.7 03:04:35 10° SSW 03:19:55 30° SSE 03:22:40 29° SE visible
08 Oct 9.9 05:19:15 10° SW 05:28:27 31° SW 05:28:27 31° SW visible
09 Oct 10.0 02:04:12 10° SSW 02:18:25 25° SSE 02:26:10 18° ESE visible
09 Oct 9.5 04:17:02 10° SW 04:31:57 40° S 04:31:57 40° S visible
09 Oct 10.4 06:34:00 10° WSW 06:37:43 18° WSW 06:37:43 18° WSW visible
10 Oct 10.3 01:05:03 10° S 01:16:59 19° SE 01:27:44 10° ESE visible
10 Oct 9.5 03:15:19 10° SW 03:32:21 38° SSE 03:35:23 36° SE visible
10 Oct 9.8 05:31:14 10° WSW 05:41:09 34° SW 05:41:09 34° SW visible
11 Oct 9.8 02:14:16 10° SSW 02:30:41 33° SSE 02:38:45 23° ESE visible
11 Oct 9.4 04:28:43 10° WSW 04:44:31 46° S 04:44:31 46° S visible
11 Oct 10.4 06:46:24 10° WSW 06:50:16 18° WSW 06:50:16 18° WSW visible
12 Oct 10.2 01:14:08 10° SSW 01:29:02 27° SE 01:42:04 11° E visible
12 Oct 9.4 03:26:39 10° SW 03:44:47 45° SSE 03:47:49 42° SE visible
12 Oct 9.9 05:43:28 10° WSW 05:53:35 34° SW 05:53:35 34° SW visible
13 Oct 9.7 02:25:11 10° SW 02:42:56 40° SSE 02:51:04 28° ESE visible
13 Oct 9.4 04:40:44 10° WSW 04:56:49 49° SSW 04:56:49 49° SSW visible
13 Oct 10.5 06:58:57 10° W 07:02:34 18° WSW 07:02:34 18° WSW visible
14 Oct 10.1 01:24:28 10° SSW 01:41:06 35° SSE 01:54:16 14° E visible
14 Oct 9.3 03:38:26 10° WSW 03:57:14 50° S 04:00:01 47° SSE visible
14 Oct 10.0 05:55:51 10° W 06:05:46 33° WSW 06:05:46 33° WSW visible
